EW8061 Weather Reports


Display with metric or nautical units.
time (UTC)temp
F
wind
direction
speed
MPH
gust
MPH
rain 1hr
in
rain 24hr
in
rain mn
in
humidity
%
barometer
mb
20260507151549 57 294 0.0 8.0 0.00 0.00 0.00 75 1013.9
20260507150046 56 283 0.0 4.0 0.00 0.00 0.00 79 1014.0
20260507144545 56 281 0.0 5.0 0.00 0.00 0.00 79 1014.1
20260507143044 56 281 2.0 4.0 0.00 0.00 0.00 79 1014.0
20260507141543 55 281 0.0 3.0 0.00 0.00 0.00 80 1014.1
20260507140056 55 281 0.0 5.0 0.00 0.00 0.00 81 1014.3
20260507134541 55 280 3.0 5.0 0.00 0.00 0.00 81 1014.4
20260507133040 55 280 0.0 5.0 0.00 0.00 0.00 82 1014.5
20260507131544 55 280 1.0 4.0 0.00 0.00 0.00 83 1014.5
20260507130038 54 280 0.0 5.0 0.00 0.00 0.00 84 1014.4
20260507124537 54 276 0.0 4.0 0.00 0.00 0.00 83 1014.3
20260507123036 55 276 0.0 4.0 0.00 0.00 0.00 84 1014.3
20260507121535 55 276 0.0 4.0 0.00 0.00 0.00 81 1014.2
20260507120034 54 276 0.0 0.0 0.00 0.00 0.00 81 1014.2
20260507114534 54 276 0.0 2.0 0.00 0.00 0.00 82 1014.2
20260507113039 54 276 1.0 3.0 0.00 0.00 0.00 81 1014.3
20260507111538 54 276 1.0 6.0 0.00 0.00 0.00 81 1014.2
20260507110032 54 275 0.0 3.0 0.00 0.00 0.00 82 1014.2
20260507104534 54 275 3.0 4.0 0.00 0.00 0.00 80 1014.3
20260507103028 54 275 0.0 3.0 0.00 0.00 0.00 83 1014.3
20260507101542 53 275 0.0 4.0 0.00 0.00 0.00 82 1014.3
20260507100032 53 275 0.0 4.0 0.00 0.00 0.00 84 1014.3
20260507094524 53 275 0.0 0.0 0.00 0.00 0.00 86 1014.2
20260507093028 53 275 1.0 3.0 0.00 0.00 0.00 85 1014.1
20260507091544 52 275 0.0 0.0 0.00 0.00 0.00 87 1014.0
20260507090014 52 275 0.0 3.0 0.00 0.00 0.00 91 1014.0
20260507084510 51 275 1.0 7.0 0.00 0.00 0.00 92 1013.9
20260507083009 50 275 0.0 0.0 0.00 0.00 0.00 93 1013.9
20260507081505 50 275 0.0 0.0 0.00 0.00 0.00 93 1013.9
20260507080100 50 275 0.0 0.0 0.00 0.00 0.00 93 1013.9
20260507074558 49 275 0.0 0.0 0.00 0.00 0.00 93 1013.7
20260507073103 49 275 0.0 2.0 0.00 0.00 0.00 93 1013.6
20260507071556 49 275 0.0 2.0 0.00 0.00 0.00 93 1013.5
20260507070135 49 275 0.0 0.0 0.00 0.00 0.00 93 1013.4
20260507064551 49 275 0.0 4.0 0.00 0.00 0.00 93 1013.3
20260507063049 49 275 0.0 2.0 0.00 0.00 0.00 93 1013.3
20260507061548 49 275 0.0 2.0 0.00 0.00 0.00 94 1013.1
20260507060044 49 275 1.0 4.0 0.00 0.00 0.00 93 1013.0
20260507054546 48 275 0.0 2.0 0.00 0.00 0.00 93 1012.9
20260507053042 48 275 0.0 2.0 0.00 0.00 0.00 93 1012.8
20260507051537 48 275 0.0 0.0 0.00 0.00 0.00 93 1012.6
20260507050035 48 275 0.0 0.0 0.00 0.00 0.00 93 1012.5
20260507044543 48 275 0.0 0.0 0.00 0.00 0.00 93 1012.4
20260507043037 48 275 0.0 0.0 0.00 0.00 0.00 93 1012.4
20260507041531 48 275 0.0 0.0 0.00 0.00 0.00 93 1012.2
20260507040029 48 275 0.0 0.0 0.00 0.00 0.00 93 1012.2
20260507034529 48 275 0.0 3.0 0.00 0.00 0.00 93 1012.1
20260507033027 48 275 0.0 1.0 0.00 0.00 0.00 93 1012.1
20260507031526 49 275 0.0 2.0 0.00 0.00 0.00 93 1012.0
20260507030025 48 275 0.0 2.0 0.00 0.00 0.00 93 1012.0
20260507024528 48 275 0.0 2.0 0.00 0.00 0.00 93 1012.0
20260507023023 48 275 0.0 1.0 0.00 0.00 0.00 93 1011.9
20260507021524 49 275 0.0 3.0 0.00 0.00 0.00 93 1011.8
20260507020022 49 275 0.0 4.0 0.00 0.00 0.00 93 1011.7
20260507014519 49 275 0.0 0.0 0.00 0.00 0.00 93 1011.6
20260507013017 49 275 0.0 1.0 0.00 0.00 0.00 92 1011.5
20260507011514 0 0.0 0.0 0.00 0.00 0.00 1011.5
20260507010011 49 275 0.0 2.0 0.00 0.00 0.00 92 1011.4
20260507004510 49 275 0.0 3.0 0.00 0.00 0.00 92 1011.3
20260507003010 49 275 0.0 3.0 0.00 0.00 0.00 92 1011.3
20260507001513 49 275 0.0 3.0 0.00 0.00 0.00 92 1011.3
20260507000007 49 275 0.0 0.0 0.00 0.00 0.00 92 1011.2
20260506234507 49 275 0.0 1.0 0.00 0.00 0.00 92 1011.2
20260506233004 49 275 0.0 2.0 0.00 0.00 0.00 92 1011.2
20260506231502 49 275 0.0 0.0 0.00 0.00 0.00 92 1011.2
20260506230001 49 275 0.0 3.0 0.00 0.00 0.00 92 1011.1
20260506224600 49 275 0.0 6.0 0.00 0.00 0.00 92 1011.0
20260506223057 49 279 2.0 7.0 0.00 0.00 0.00 92 1010.9
20260506221556 49 292 1.0 4.0 0.00 0.00 0.00 92 1010.9
20260506220054 49 292 0.0 3.0 0.00 0.00 0.00 92 1010.8
20260506214552 49 294 0.0 5.0 0.00 0.00 0.00 92 1010.7
20260506213050 49 294 0.0 4.0 0.00 0.00 0.00 92 1010.6
20260506211550 49 294 0.0 3.0 0.00 0.00 0.00 92 1010.5
20260506210051 49 294 0.0 3.0 0.00 0.00 0.00 92 1010.5
20260506204548 49 294 0.0 2.0 0.00 0.00 0.00 92 1010.5
20260506203051 49 294 0.0 2.0 0.00 0.00 0.00 92 1010.4
20260506201606 49 294 0.0 2.0 0.00 0.00 0.00 92 1010.3
20260506200044 49 294 0.0 0.0 0.00 0.00 0.00 92 1010.1
20260506194550 49 294 0.0 0.0 0.00 0.00 0.00 92 1009.9
20260506193044 49 294 0.0 0.0 0.00 0.00 0.00 92 1009.6
20260506191542 50 294 0.0 2.0 0.00 0.00 0.00 92 1009.5
20260506190037 49 294 0.0 3.0 0.00 0.00 0.00 92 1009.4
20260506184546 49 294 0.0 2.0 0.00 0.00 0.00 92 1009.3
20260506183039 50 294 0.0 7.0 0.00 0.00 0.00 92 1009.1
20260506181532 50 292 1.0 5.0 0.00 0.00 0.00 92 1008.9
20260506180032 50 293 0.0 5.0 0.00 0.00 0.00 92 1008.8
20260506174530 50 292 1.0 5.0 0.00 0.00 0.00 91 1008.7
20260506173028 50 293 0.0 3.0 0.00 0.00 0.00 91 1008.5
20260506171535 50 293 1.0 8.0 0.00 0.00 0.00 91 1008.4
20260506170024 50 288 3.0 12.0 0.00 0.00 0.00 91 1008.2
20260506164525 50 284 3.0 8.0 0.00 0.00 0.00 91 1008.2
20260506163037 50 284 3.0 9.0 0.00 0.00 0.00 91 1008.1
20260506161522 50 298 2.0 7.0 0.00 0.00 0.00 90 1008.1
20260506160023 50 292 3.0 11.0 0.00 0.00 0.00 90 1008.0
20260506154524 50 281 1.0 10.0 0.00 0.00 0.00 91 1007.9
20260506153016 50 290 1.0 9.0 0.00 0.00 0.00 91 1007.8